Location: ?????
(55.6500°N, 37.2500°E)
Time: 02:21:23
(UTC+00:00)

NOSS 2-3 (C) - Pass Details

Date: 19 May 2025
Orbit: 469 x 1713 km, 63.3° (Epoch: 13 June)

Event Time Altitude Azimuth Distance (km) Brightness Sun altitude
Rises 18:24:30 0° 240° (WSW) 2,511 6.9 -5.1°
Reaches altitude 10° 18:26:31 10° 244° (WSW) 1,663 6.0 -5.3°
Maximum altitude 18:30:05 66° 327° (NNW) 580 3.8 -5.6°
Drops below altitude 10° 18:34:22 10° 50° (NE) 1,987 6.2 -6.0°
Sets 18:36:58 0° 54° (NE) 3,061 7.1 -6.2°
